This demonstration page uses our WeatherBlox Daily Observations layout. Learn more.

Left ArrowRight Arrow

39.51506, -84.39828

Hourly Observations for March 11, 2018

Temp ( °F °C ) Dew Point ( °F °C ) Humidity (%) Winds ( mph kmh ) Pressure ( in mb ) Visibility ( mi km ) Precip ( " mm )
12:15 am 00:15 Clear 31 -0.3 21 -5.9 66 66 NNE 7 11 30.15 1021 10 16.0934 N/A
12:35 am 00:35 Clear 30 -1 21 -6 69 69 NE 6 9 30.15 1021 10 16.0934 N/A
12:50 am 00:50 Clear 31 -0.6 21 -5.9 68 68 ENE 6 9 30.15 1021 10 16.0934 N/A
1:15 am 01:15 Clear 30 -0.9 21 -6.1 68 68 ENE 8 13 30.15 1021 10 16.0934 N/A
1:35 am 01:35 Clear 30 -1.1 21 -6 70 70 ENE 8 13 30.15 1021 10 16.0934 N/A
1:50 am 01:50 Clear 30 -1.1 21 -5.9 70 70 NE 6 9 30.15 1021 10 16.0934 N/A
3:15 am 03:15 Clear 29 -1.6 21 -6.1 72 72 NE 6 9 30.15 1021 10 16.0934 N/A
3:35 am 03:35 Clear 29 -1.5 21 -6 72 72 NE 7 11 30.15 1021 10 16.0934 N/A
3:50 am 03:50 Clear 29 -1.5 21 -6.3 70 70 NE 7 11 30.15 1021 10 16.0934 N/A
4:15 am 04:15 Clear 28 -2 20 -6.5 72 72 NNE 8 13 30.15 1021 10 16.0934 N/A
4:35 am 04:35 Clear 28 -2 20 -6.6 71 71 NNE 6 9 30.15 1021 10 16.0934 N/A
4:50 am 04:50 Clear 28 -2.2 20 -6.8 71 71 NE 6 9 30.15 1021 10 16.0934 N/A
5:15 am 05:15 Clear 28 -2.3 20 -6.7 72 72 NNE 8 13 30.15 1021 10 16.0934 N/A
5:35 am 05:35 Clear 28 -2.3 20 -6.8 72 72 NE 8 13 30.15 1021 10 16.0934 N/A
5:50 am 05:50 Clear 28 -2.3 20 -6.9 71 71 NE 7 11 30.15 1021 10 16.0934 N/A
6:15 am 06:15 Clear 27 -2.8 19 -7.1 73 73 ENE 6 9 30.15 1021 10 16.0934 N/A
6:35 am 06:35 Clear 26 -3.1 19 -7 75 75 ENE 7 11 30.18 1022 10 16.0934 N/A
6:50 am 06:50 Clear 26 -3.2 19 -7.2 74 74 NE 3 6 30.18 1022 10 16.0934 N/A
7:15 am 07:15 Clear 26 -3.2 19 -7.4 73 73 NE 6 9 30.18 1022 10 16.0934 N/A
7:35 am 07:35 Clear 27 -2.7 19 -7 73 73 ENE 6 9 30.18 1022 10 16.0934 N/A
7:50 am 07:50 Clear 26 -3.2 19 -7.2 74 74 ENE 6 9 30.18 1022 10 16.0934 N/A
8:15 am 08:15 Sunny 27 -2.9 19 -7.3 72 72 NE 6 9 30.18 1022 10 16.0934 N/A
8:35 am 08:35 Sunny 28 -2.5 19 -7.1 71 71 ENE 7 11 30.18 1022 10 16.0934 N/A
8:50 am 08:50 Sunny 28 -2 19 -7.2 68 68 E 7 11 30.18 1022 10 16.0934 N/A
9:15 am 09:15 Sunny 29 -1.5 19 -7.3 65 65 E 8 13 30.18 1022 10 16.0934 N/A
9:35 am 09:35 Mostly Cloudy 30 -1.2 19 -7.3 64 64 ENE 8 13 30.21 1023 10 16.0934 N/A
9:50 am 09:50 Mostly Cloudy 31 -0.8 19 -7.2 62 62 E 12 19 30.18 1022 10 16.0934 N/A
10:15 am 10:15 Partly Cloudy 32 0.2 20 -6.7 60 60 ENE 13 20 30.18 1022 10 16.0934 N/A
10:35 am 10:35 Partly Cloudy 34 1.1 20 -6.8 56 56 E 10 17 30.18 1022 10 16.0934 N/A
10:50 am 10:50 Sunny 35 1.5 19 -7.2 53 53 E 15 24 30.18 1022 10 16.0934 N/A
11:15 am 11:15 Sunny 36 2.4 19 -7 50 50 E 12 19 30.18 1022 10 16.0934 N/A
11:35 am 11:35 Mostly Cloudy 37 2.7 20 -6.9 50 50 E 13 20 30.18 1022 10 16.0934 N/A
11:50 am 11:50 Partly Cloudy 37 2.9 20 -6.9 49 49 ENE 12 19 30.18 1022 10 16.0934 N/A
12:15 pm 12:15 Cloudy 37 2.7 19 -7.3 48 48 E 14 22 30.18 1022 10 16.0934 N/A
12:35 pm 12:35 Cloudy 38 3.5 19 -7 47 47 ENE 13 20 30.15 1021 10 16.0934 N/A
12:50 pm 12:50 Cloudy 39 4 19 -7 45 45 NE 12 19 30.15 1021 10 16.0934 N/A
1:15 pm 13:15 Cloudy 40 4.2 20 -6.6 46 46 NNE 8 13 30.15 1021 10 16.0934 N/A
1:35 pm 13:35 Cloudy 40 4.2 20 -6.9 45 45 ENE 13 20 30.15 1021 10 16.0934 N/A
1:50 pm 13:50 Cloudy 41 4.8 20 -6.9 43 43 ENE 12 19 30.12 1020 10 16.0934 N/A
2:15 pm 14:15 Partly Cloudy 40 4.6 20 -6.6 44 44 ENE 9 15 30.15 1021 10 16.0934 N/A
2:35 pm 14:35 Sunny 41 4.8 20 -6.7 43 43 ENE 13 20 30.09 1019 10 16.0934 N/A
2:50 pm 14:50 Sunny 41 5.1 19 -7.1 41 41 ENE 9 15 30.09 1019 10 16.0934 N/A
3:15 pm 15:15 Cloudy 42 5.3 20 -6.8 42 42 ENE 12 19 30.09 1019 10 16.0934 N/A
3:35 pm 15:35 Cloudy 42 5.3 20 -6.6 42 42 ENE 13 20 30.09 1019 10 16.0934 N/A
3:55 pm 15:55 Cloudy 42 5.4 20 -6.5 42 42 NNE 12 19 30.06 1018 10 16.0934 N/A
4:15 pm 16:15 Cloudy 42 5.6 20 -6.4 42 42 NE 16 26 30.06 1018 10 16.0934 N/A
4:35 pm 16:35 Cloudy 42 5.8 21 -6.2 42 42 NNE 17 28 30.06 1018 10 16.0934 N/A
4:55 pm 16:55 Cloudy 42 5.7 20 -6.7 41 41 NE 15 24 30.03 1017 10 16.0934 N/A
5:15 pm 17:15 Mostly Cloudy 42 5.7 21 -6.3 42 42 ENE 13 20 30.03 1017 10 16.0934 N/A
5:35 pm 17:35 Mostly Cloudy 42 5.3 20 -6.4 43 43 NE 13 20 30.03 1017 10 16.0934 N/A
5:55 pm 17:55 Cloudy 41 5.2 21 -6.1 44 44 NNE 14 22 30.03 1017 10 16.0934 N/A
6:15 pm 18:15 Mostly Cloudy 42 5.3 21 -6 44 44 NE 13 20 30.03 1017 10 16.0934 N/A
6:35 pm 18:35 Cloudy 42 5.3 21 -6.2 44 44 NE 8 13 30.06 1018 10 16.0934 N/A
6:55 pm 18:55 Cloudy 41 5.2 21 -5.9 45 45 NE 12 19 30.06 1018 10 16.0934 N/A
7:15 pm 19:15 Cloudy 41 5.1 22 -5.4 47 47 NE 12 19 30.06 1018 10 16.0934 N/A
7:35 pm 19:35 Cloudy 40 4.7 23 -5 50 50 NE 10 17 30.03 1017 10 16.0934 N/A
7:55 pm 19:55 Clear 40 4.4 23 -4.8 52 52 NNE 13 20 30.03 1017 10 16.0934 N/A
8:15 pm 20:15 Cloudy 40 4.3 23 -4.9 52 52 NE 14 22 30.06 1018 10 16.0934 N/A
8:35 pm 20:35 Cloudy 39 4 23 -4.8 53 53 NE 17 28 30.03 1017 10 16.0934 N/A
8:55 pm 20:55 Cloudy 39 3.9 23 -4.9 53 53 NNE 14 22 30.09 1019 10 16.0934 N/A
9:15 pm 21:15 Cloudy 39 3.7 23 -5 53 53 NE 15 24 30.09 1019 10 16.0934 N/A
9:35 pm 21:35 Clear 38 3.6 23 -4.9 54 54 NE 16 26 30.09 1019 10 16.0934 N/A
9:55 pm 21:55 Partly Cloudy 38 3.4 23 -4.9 55 55 NE 15 24 30.09 1019 10 16.0934 N/A
10:15 pm 22:15 Cloudy 37 3 23 -4.9 57 57 NNE 15 24 30.09 1019 10 16.0934 N/A
10:35 pm 22:35 Clear 37 2.7 23 -4.8 58 58 NE 16 26 30.09 1019 10 16.0934 N/A
10:55 pm 22:55 Clear 36 2.3 23 -4.9 59 59 NE 16 26 30.09 1019 10 16.0934 N/A
11:15 pm 23:15 Clear 36 2.1 22 -5.7 57 57 NE 16 26 30.09 1019 10 16.0934 N/A
11:35 pm 23:35 Clear 35 1.9 22 -5.4 59 59 NNE 9 15 30.09 1019 10 16.0934 N/A
11:55 pm 23:55 Clear 35 1.8 21 -6.2 56 56 NNE 10 17 30.09 1019 10 16.0934 N/A

Powered by AerisWeather